ETD686 ZBAD-ZBAD

Flight info

Callsign ETD686
Flight time 0h 45m
Altitude 1500
Route TOUCH AND GO CIRCUITS
Aircraft A35K/H-VGDW/C

Departure

Time 2026-04-25 12:25
Airport Beijing Daxing International Airport (ZBAD)

Arrival

Time 2026-04-25 13:10
Airport Beijing Daxing International Airport (ZBAD)
Time Latitude Longitude Altitude Speed Heading
2026-04-25 12:17 39.51688 116.39627 99 ft 0 kts 173°
2026-04-25 12:22 39.51684 116.39628 99 ft 2 kts 172°
2026-04-25 12:22 39.51675 116.39630 102 ft 0 kts 172°
2026-04-25 12:24 39.51660 116.39634 101 ft 0 kts 169°
2026-04-25 12:24 39.51559 116.39649 101 ft 55 kts 174°
2026-04-25 12:24 39.50792 116.39772 108 ft 169 kts 169°
2026-04-25 12:24 39.49462 116.40199 471 ft 221 kts 160°
2026-04-25 12:25 39.47940 116.40837 716 ft 236 kts 164°
2026-04-25 12:25 39.46280 116.41306 1026 ft 253 kts 167°
2026-04-25 12:25 39.44770 116.41995 1308 ft 220 kts 151°
2026-04-25 12:25 39.43643 116.43123 1354 ft 194 kts 143°
2026-04-25 12:26 39.42578 116.43956 1343 ft 168 kts 165°
2026-04-25 12:26 39.41474 116.44371 1360 ft 164 kts 167°
2026-04-25 12:26 39.40491 116.45114 1355 ft 173 kts 133°
2026-04-25 12:26 39.40183 116.46662 1350 ft 191 kts 86°
2026-04-25 12:27 39.40517 116.48385 1360 ft 205 kts 71°
2026-04-25 12:27 39.41030 116.50142 1356 ft 211 kts 70°
2026-04-25 12:27 39.41571 116.51876 1355 ft 212 kts 68°
2026-04-25 12:27 39.42457 116.53391 1361 ft 213 kts 33°
2026-04-25 12:28 39.43834 116.53976 1393 ft 209 kts 354°
2026-04-25 12:28 39.45267 116.53838 1369 ft 206 kts 342°
2026-04-25 12:28 39.46687 116.53540 1358 ft 207 kts 340°
2026-04-25 12:28 39.48102 116.53222 1357 ft 207 kts 338°
2026-04-25 12:29 39.49530 116.52901 1358 ft 207 kts 336°
2026-04-25 12:29 39.50808 116.52381 1373 ft 208 kts 334°
2026-04-25 12:29 39.52227 116.51973 1364 ft 209 kts 341°
2026-04-25 12:29 39.53655 116.51655 1358 ft 207 kts 342°
2026-04-25 12:30 39.55072 116.51318 1356 ft 207 kts 341°
2026-04-25 12:30 39.56500 116.50978 1357 ft 210 kts 341°
2026-04-25 12:30 39.57941 116.50644 1353 ft 212 kts 341°
2026-04-25 12:30 39.59396 116.50311 1357 ft 212 kts 341°
2026-04-25 12:31 39.60833 116.49926 1357 ft 208 kts 335°
2026-04-25 12:31 39.61935 116.48978 1345 ft 174 kts 297°
2026-04-25 12:31 39.62306 116.47636 1330 ft 151 kts 265°
2026-04-25 12:31 39.62252 116.46316 1212 ft 145 kts 255°
2026-04-25 12:32 39.62089 116.45016 1098 ft 146 kts 252°
2026-04-25 12:32 39.61902 116.43721 1050 ft 147 kts 250°
2026-04-25 12:32 39.61682 116.42431 1052 ft 146 kts 246°
2026-04-25 12:32 39.61456 116.41142 1053 ft 146 kts 250°
2026-04-25 12:33 39.60894 116.40142 1034 ft 134 kts 213°
2026-04-25 12:33 39.59996 116.40021 1052 ft 133 kts 175°
2026-04-25 12:33 39.59120 116.40356 1043 ft 128 kts 174°
2026-04-25 12:33 39.58309 116.40071 1046 ft 124 kts 217°
2026-04-25 12:34 39.57874 116.39102 1075 ft 126 kts 241°
2026-04-25 12:34 39.57405 116.38193 1038 ft 123 kts 214°
2026-04-25 12:34 39.56552 116.38048 1052 ft 129 kts 173°
2026-04-25 12:34 39.55959 116.38116 1024 ft 129 kts 179°
2026-04-25 12:35 39.54755 116.38248 774 ft 130 kts 174°
2026-04-25 12:35 39.53851 116.38412 532 ft 133 kts 174°
2026-04-25 12:35 39.52928 116.38551 406 ft 137 kts 176°
2026-04-25 12:35 39.51965 116.38701 172 ft 137 kts 173°
2026-04-25 12:36 39.51099 116.38837 101 ft 115 kts 174°
2026-04-25 12:36 39.50417 116.38940 95 ft 86 kts 173°
2026-04-25 12:36 39.49780 116.39038 102 ft 130 kts 172°
2026-04-25 12:36 39.48528 116.39220 288 ft 218 kts 171°
2026-04-25 12:37 39.46948 116.39750 953 ft 243 kts 165°
2026-04-25 12:37 39.45357 116.40518 1276 ft 243 kts 163°
2026-04-25 12:37 39.43814 116.41337 1355 ft 238 kts 163°
2026-04-25 12:37 39.42293 116.42182 1355 ft 237 kts 163°
2026-04-25 12:38 39.40796 116.43021 1356 ft 237 kts 163°
2026-04-25 12:38 39.39282 116.43867 1358 ft 238 kts 163°
2026-04-25 12:38 39.37751 116.44708 1354 ft 237 kts 163°
2026-04-25 12:38 39.36308 116.45540 1363 ft 219 kts 159°
2026-04-25 12:39 39.35205 116.46830 1360 ft 216 kts 129°
2026-04-25 12:39 39.34817 116.48677 1362 ft 216 kts 96°
2026-04-25 12:39 39.35128 116.50546 1373 ft 212 kts 79°
2026-04-25 12:39 39.35524 116.52361 1362 ft 208 kts 82°
2026-04-25 12:40 39.35894 116.54169 1377 ft 209 kts 83°
2026-04-25 12:40 39.36296 116.55987 1372 ft 214 kts 76°
2026-04-25 12:40 39.37144 116.57517 1374 ft 222 kts 40°
2026-04-25 12:40 39.38523 116.58322 1409 ft 217 kts
2026-04-25 12:41 39.40020 116.58481 1377 ft 215 kts 355°
2026-04-25 12:41 39.41517 116.58487 1378 ft 216 kts 354°
2026-04-25 12:41 39.43017 116.58475 1377 ft 216 kts 353°
2026-04-25 12:41 39.44518 116.58467 1377 ft 216 kts 353°
2026-04-25 12:42 39.46015 116.58462 1380 ft 215 kts 353°
2026-04-25 12:42 39.46523 116.58460 1381 ft 215 kts 353°
2026-04-25 12:42 39.48506 116.58450 1380 ft 215 kts 353°
2026-04-25 12:42 39.50000 116.58430 1378 ft 215 kts 353°
2026-04-25 12:43 39.51491 116.58399 1378 ft 214 kts 353°
2026-04-25 12:43 39.52980 116.58365 1380 ft 214 kts 353°
2026-04-25 12:43 39.55966 116.58324 1379 ft 214 kts 353°
2026-04-25 12:44 39.57453 116.58312 1376 ft 213 kts 353°
2026-04-25 12:44 39.58932 116.58301 1378 ft 212 kts 353°
2026-04-25 12:44 39.61849 116.58279 1367 ft 201 kts 353°
2026-04-25 12:45 39.63179 116.58102 1226 ft 184 kts 333°
2026-04-25 12:45 39.64092 116.57188 1114 ft 164 kts 293°
2026-04-25 12:45 39.64498 116.54498 1078 ft 149 kts 263°
2026-04-25 12:46 39.64533 116.53153 1074 ft 150 kts 262°
2026-04-25 12:46 39.64562 116.51799 1075 ft 149 kts 261°
2026-04-25 12:46 39.64583 116.50468 1070 ft 146 kts 261°
2026-04-25 12:46 39.64607 116.49158 1078 ft 145 kts 261°
2026-04-25 12:47 39.64638 116.47865 1081 ft 145 kts 264°
2026-04-25 12:47 39.64650 116.46561 1077 ft 144 kts 262°
2026-04-25 12:47 39.64669 116.45252 1074 ft 147 kts 263°
2026-04-25 12:47 39.64698 116.43902 1079 ft 151 kts 263°
2026-04-25 12:48 39.64721 116.42568 1067 ft 138 kts 264°
2026-04-25 12:48 39.64755 116.41385 1080 ft 130 kts 263°
2026-04-25 12:48 39.64792 116.40209 1089 ft 128 kts 262°
2026-04-25 12:48 39.64746 116.39088 1058 ft 124 kts 250°
2026-04-25 12:49 39.64162 116.38305 1075 ft 127 kts 205°
2026-04-25 12:49 39.63276 116.38182 1088 ft 128 kts 186°
2026-04-25 12:49 39.62430 116.37900 1085 ft 125 kts 204°
2026-04-25 12:49 39.61554 116.37782 1087 ft 131 kts 181°
2026-04-25 12:50 39.60656 116.38004 1083 ft 132 kts 175°
2026-04-25 12:50 39.59767 116.38293 1083 ft 132 kts 174°
2026-04-25 12:50 39.58886 116.38582 1082 ft 129 kts 175°
2026-04-25 12:50 39.58014 116.38824 1080 ft 127 kts 176°
2026-04-25 12:51 39.57152 116.38945 1084 ft 124 kts 183°
2026-04-25 12:51 39.56294 116.39003 983 ft 123 kts 184°
2026-04-25 12:51 39.55431 116.39025 848 ft 126 kts 182°
2026-04-25 12:51 39.54536 116.39130 804 ft 135 kts 173°
2026-04-25 12:52 39.53616 116.39357 528 ft 132 kts 175°
2026-04-25 12:52 39.52691 116.39485 356 ft 134 kts 174°
2026-04-25 12:52 39.51797 116.39615 123 ft 125 kts 166°
2026-04-25 12:52 39.51013 116.39747 97 ft 107 kts 175°
2026-04-25 12:53 39.50146 116.39867 104 ft 176 kts 174°
2026-04-25 12:53 39.48640 116.40112 426 ft 251 kts 174°
2026-04-25 12:53 39.46863 116.40416 668 ft 242 kts 173°
2026-04-25 12:53 39.45335 116.40672 798 ft 206 kts 176°
2026-04-25 12:54 39.43959 116.40964 924 ft 196 kts 174°
2026-04-25 12:54 39.42634 116.41283 1081 ft 191 kts 175°
2026-04-25 12:54 39.41335 116.41640 1239 ft 188 kts 173°
2026-04-25 12:54 39.40071 116.41994 1360 ft 184 kts 174°
2026-04-25 12:55 39.38830 116.42355 1378 ft 183 kts 174°
2026-04-25 12:55 39.38004 116.42596 1380 ft 185 kts 174°
2026-04-25 12:55 39.36352 116.43292 1371 ft 196 kts 154°
2026-04-25 12:55 39.35477 116.44703 1372 ft 213 kts 120°
2026-04-25 12:56 39.35292 116.46652 1386 ft 227 kts 91°
2026-04-25 12:56 39.35561 116.48677 1384 ft 230 kts 84°
2026-04-25 12:56 39.35932 116.50691 1379 ft 230 kts 83°
2026-04-25 12:56 39.36316 116.52695 1380 ft 230 kts 83°
2026-04-25 12:57 39.36705 116.54716 1372 ft 232 kts 83°
2026-04-25 12:57 39.37097 116.56743 1377 ft 233 kts 83°
2026-04-25 12:57 39.37476 116.58769 1371 ft 232 kts 83°
2026-04-25 12:57 39.38073 116.60725 1375 ft 239 kts 59°
2026-04-25 12:58 39.39316 116.62136 1375 ft 241 kts 26°
2026-04-25 12:58 39.40923 116.62661 1377 ft 237 kts
2026-04-25 12:58 39.42562 116.62699 1373 ft 235 kts 354°
2026-04-25 12:58 39.44192 116.62656 1376 ft 234 kts 353°
2026-04-25 12:59 39.45816 116.62616 1377 ft 233 kts 353°
2026-04-25 12:59 39.47440 116.62591 1379 ft 233 kts 353°
2026-04-25 12:59 39.49063 116.62572 1380 ft 233 kts 353°
2026-04-25 12:59 39.50684 116.62555 1377 ft 233 kts 353°
2026-04-25 13:00 39.52303 116.62538 1378 ft 232 kts 353°
2026-04-25 13:00 39.53342 116.62531 1385 ft 219 kts 353°
2026-04-25 13:00 39.55349 116.62537 1383 ft 215 kts 353°
2026-04-25 13:00 39.56826 116.62543 1377 ft 215 kts 353°
2026-04-25 13:01 39.58343 116.62551 1377 ft 215 kts 353°
2026-04-25 13:01 39.59819 116.62556 1379 ft 215 kts 354°
2026-04-25 13:01 39.61309 116.62525 1377 ft 212 kts 349°
2026-04-25 13:01 39.62634 116.61883 1366 ft 198 kts 314°
2026-04-25 13:02 39.63379 116.60539 1284 ft 177 kts 279°
2026-04-25 13:02 39.63578 116.59020 1173 ft 167 kts 266°
2026-04-25 13:02 39.63641 116.57519 1097 ft 167 kts 264°
2026-04-25 13:02 39.63680 116.56011 1066 ft 168 kts 262°
2026-04-25 13:03 39.63699 116.54486 1076 ft 169 kts 263°
2026-04-25 13:03 39.63701 116.52960 1081 ft 169 kts 263°
2026-04-25 13:03 39.63710 116.51432 1080 ft 169 kts 262°
2026-04-25 13:03 39.63731 116.49907 1082 ft 168 kts 262°
2026-04-25 13:04 39.63752 116.48470 1065 ft 151 kts 262°
2026-04-25 13:04 39.63770 116.47141 1073 ft 145 kts 261°
2026-04-25 13:04 39.63796 116.45829 1082 ft 145 kts 261°
2026-04-25 13:04 39.63826 116.44559 1078 ft 138 kts 263°
2026-04-25 13:05 39.63853 116.43316 1077 ft 139 kts 264°
2026-04-25 13:05 39.63877 116.42060 1078 ft 140 kts 264°
2026-04-25 13:05 39.63899 116.40807 1073 ft 139 kts 263°
2026-04-25 13:05 39.63930 116.39554 1078 ft 139 kts 262°
2026-04-25 13:06 39.63904 116.38322 1079 ft 134 kts 253°
2026-04-25 13:06 39.63335 116.37422 1075 ft 136 kts 210°
2026-04-25 13:06 39.62388 116.37267 1094 ft 140 kts 182°
2026-04-25 13:06 39.61427 116.37262 1085 ft 138 kts 188°
2026-04-25 13:07 39.60462 116.37310 1081 ft 140 kts 180°
2026-04-25 13:07 39.59518 116.37558 1072 ft 134 kts 175°
2026-04-25 13:07 39.58637 116.37815 1075 ft 127 kts 176°
2026-04-25 13:07 39.57776 116.37990 1076 ft 124 kts 180°
2026-04-25 13:08 39.56934 116.38017 1026 ft 120 kts 187°
2026-04-25 13:08 39.56107 116.38017 870 ft 120 kts 184°
2026-04-25 13:08 39.55244 116.38159 732 ft 129 kts 174°
2026-04-25 13:08 39.54365 116.38331 541 ft 128 kts 175°
2026-04-25 13:09 39.53464 116.38445 424 ft 134 kts 176°
2026-04-25 13:09 39.52555 116.38597 239 ft 130 kts 173°
2026-04-25 13:09 39.51668 116.38753 112 ft 128 kts 175°
2026-04-25 13:09 39.50907 116.38862 104 ft 65 kts 172°
2026-04-25 13:10 39.50789 116.38881 104 ft 0 kts 173°
2026-04-25 13:16 39.50747 116.38887 103 ft 30 kts 173°
2026-04-25 13:16 39.50197 116.38971 95 ft 131 kts 173°
2026-04-25 13:16 39.48999 116.39144 336 ft 206 kts 174°
2026-04-25 13:16 39.47468 116.39371 608 ft 228 kts 174°
2026-04-25 13:17 39.45836 116.39613 796 ft 247 kts 177°
2026-04-25 13:17 39.44048 116.39868 981 ft 269 kts 176°
2026-04-25 13:17 39.42254 116.40505 1155 ft 284 kts 158°
2026-04-25 13:17 39.40701 116.42155 1327 ft 301 kts 134°
2026-04-25 13:18 39.39713 116.44631 1378 ft 323 kts 111°
2026-04-25 13:18 39.39509 116.47388 1377 ft 295 kts 90°
2026-04-25 13:18 39.39826 116.49866 1376 ft 264 kts 84°
2026-04-25 13:18 39.40215 116.52058 1366 ft 238 kts 83°
2026-04-25 13:19 39.40594 116.54023 1354 ft 213 kts 83°
2026-04-25 13:19 39.41145 116.55679 1297 ft 192 kts 53°
2026-04-25 13:19 39.42230 116.56616 1549 ft 204 kts 15°
2026-04-25 13:19 39.42698 116.56777 1736 ft 210 kts
2026-04-25 13:20 39.44770 116.56972 2152 ft 238 kts 355°
2026-04-25 13:20 39.47000 116.56977 2072 ft 239 kts 353°
2026-04-25 13:20 39.48661 116.56983 1952 ft 238 kts 353°
2026-04-25 13:20 39.50312 116.56992 1849 ft 236 kts 353°
2026-04-25 13:21 39.51943 116.57006 1753 ft 234 kts 353°
2026-04-25 13:21 39.53577 116.57017 1634 ft 236 kts 353°
2026-04-25 13:21 39.55210 116.57015 1522 ft 232 kts 353°
2026-04-25 13:21 39.56812 116.57007 1406 ft 229 kts 353°
2026-04-25 13:22 39.58419 116.56986 1389 ft 232 kts 352°
2026-04-25 13:22 39.59948 116.56605 1380 ft 222 kts 328°
2026-04-25 13:22 39.61064 116.55379 1351 ft 201 kts 295°
2026-04-25 13:23 39.61532 116.52326 1228 ft 156 kts 264°
2026-04-25 13:23 39.61563 116.50966 1181 ft 148 kts 263°
2026-04-25 13:23 39.61588 116.49632 1180 ft 148 kts 263°
2026-04-25 13:23 39.61625 116.48301 1178 ft 148 kts 263°
2026-04-25 13:24 39.61665 116.46976 1178 ft 147 kts 262°
2026-04-25 13:24 39.61689 116.45688 1181 ft 146 kts 261°
2026-04-25 13:24 39.61707 116.44370 1178 ft 146 kts 261°
2026-04-25 13:24 39.61729 116.43049 1181 ft 147 kts 261°
2026-04-25 13:25 39.61736 116.41717 1180 ft 149 kts 262°
2026-04-25 13:25 39.61719 116.40416 1164 ft 135 kts 260°
2026-04-25 13:25 39.61354 116.39468 1157 ft 114 kts 215°
2026-04-25 13:25 39.60650 116.39028 1184 ft 111 kts 211°
2026-04-25 13:26 39.59950 116.38614 1183 ft 111 kts 206°
2026-04-25 13:26 39.59194 116.38370 1183 ft 114 kts 194°
2026-04-25 13:26 39.58384 116.38501 1182 ft 120 kts 176°
2026-04-25 13:26 39.57573 116.38776 1139 ft 121 kts 173°
2026-04-25 13:27 39.56770 116.39044 1120 ft 121 kts 174°
2026-04-25 13:27 39.55957 116.39142 956 ft 115 kts 185°
2026-04-25 13:27 39.55126 116.39184 759 ft 122 kts 184°
2026-04-25 13:27 39.54277 116.39220 588 ft 124 kts 178°
2026-04-25 13:28 39.53407 116.39382 458 ft 132 kts 174°
2026-04-25 13:28 39.53109 116.39433 405 ft 133 kts 172°
2026-04-25 13:28 39.51587 116.39651 112 ft 127 kts 174°
2026-04-25 13:28 39.50745 116.39781 97 ft 120 kts 173°
2026-04-25 13:29 39.49723 116.39946 126 ft 180 kts 174°
2026-04-25 13:29 39.48416 116.40135 785 ft 190 kts 174°
2026-04-25 13:29 39.47134 116.40463 1283 ft 188 kts 166°
2026-04-25 13:30 39.45600 116.43573 1396 ft 252 kts 102°
2026-04-25 13:30 39.45734 116.45904 1365 ft 266 kts 85°
2026-04-25 13:30 39.46078 116.48128 1367 ft 239 kts 83°
2026-04-25 13:31 39.47131 116.52077 1392 ft 240 kts 54°
2026-04-25 13:31 39.48466 116.53354 1383 ft 241 kts 20°
2026-04-25 13:31 39.50094 116.53743 1388 ft 237 kts 358°
2026-04-25 13:31 39.51732 116.53758 1380 ft 234 kts 354°
2026-04-25 13:32 39.53359 116.53726 1380 ft 234 kts 353°
2026-04-25 13:32 39.54986 116.53694 1379 ft 233 kts 353°
2026-04-25 13:32 39.56612 116.53671 1382 ft 234 kts 353°
2026-04-25 13:32 39.57691 116.53663 1381 ft 234 kts 353°
2026-04-25 13:33 39.59305 116.53638 1369 ft 230 kts 351°
2026-04-25 13:33 39.60763 116.53078 1292 ft 207 kts 320°
2026-04-25 13:33 39.61607 116.51820 1193 ft 166 kts 283°
2026-04-25 13:33 39.61788 116.50910 1180 ft 152 kts 271°
2026-04-25 13:34 39.61878 116.49115 1175 ft 148 kts 264°
2026-04-25 13:34 39.61908 116.47806 1177 ft 147 kts 263°
2026-04-25 13:34 39.61955 116.46481 1181 ft 147 kts 263°
2026-04-25 13:34 39.62009 116.45158 1183 ft 146 kts 263°
2026-04-25 13:35 39.62066 116.43846 1174 ft 141 kts 263°
2026-04-25 13:35 39.62138 116.42671 1162 ft 125 kts 264°
2026-04-25 13:35 39.62211 116.41553 1171 ft 125 kts 264°
2026-04-25 13:35 39.62183 116.40445 1162 ft 121 kts 246°
2026-04-25 13:36 39.61598 116.39766 1119 ft 118 kts 197°
2026-04-25 13:36 39.60778 116.39628 1131 ft 119 kts 191°
2026-04-25 13:36 39.59968 116.39477 1125 ft 117 kts 194°
2026-04-25 13:36 39.59171 116.39247 1165 ft 116 kts 197°
2026-04-25 13:37 39.58386 116.38999 1149 ft 116 kts 198°
2026-04-25 13:37 39.57594 116.38786 1088 ft 117 kts 194°
2026-04-25 13:37 39.56771 116.38809 979 ft 121 kts 175°
2026-04-25 13:37 39.55936 116.39016 834 ft 125 kts 179°
2026-04-25 13:38 39.55076 116.39162 765 ft 125 kts 181°
2026-04-25 13:38 39.54204 116.39258 680 ft 127 kts 178°
2026-04-25 13:38 39.53305 116.39374 399 ft 135 kts 174°
2026-04-25 13:38 39.52345 116.39535 213 ft 137 kts 175°
2026-04-25 13:39 39.51456 116.39680 102 ft 122 kts 174°
2026-04-25 13:39 39.50682 116.39786 99 ft 98 kts 175°
2026-04-25 13:39 39.50099 116.39862 103 ft 72 kts 169°
2026-04-25 13:39 39.49666 116.39978 96 ft 54 kts 150°
2026-04-25 13:40 39.49414 116.40199 98 ft 31 kts 153°
2026-04-25 13:40 39.49252 116.40244 100 ft 19 kts 152°
2026-04-25 13:40 39.49224 116.40288 101 ft 2 kts 100°
2026-04-25 13:40 39.49227 116.40326 100 ft 0 kts 84°
2026-04-25 13:41 39.49229 116.40345 97 ft 0 kts 84°
2026-04-25 13:41 39.49235 116.40388 96 ft 8 kts 71°
2026-04-25 13:41 39.49261 116.40433 99 ft 10 kts 46°
2026-04-25 13:41 39.49334 116.40452 93 ft 12 kts 356°
2026-04-25 13:42 39.49423 116.40439 96 ft 13 kts 353°
2026-04-25 13:42 39.49484 116.40430 95 ft 0 kts 353°